| time (UTC) | temp F | wind direction | speed knots | gust knots | rain 1hr in | rain 24hr in | rain mn in | humidity % | barometer mb |
| 20260504201515 | 47 | 331 | 6.1 | 16.5 | 0.00 | 0.00 | 0.00 | 67 | 1004.7 |
| 20260504200014 | 50 | 290 | 4.3 | 14.8 | 0.00 | 0.00 | 0.00 | 58 | 1004.1 |
| 20260504194515 | 51 | 273 | 5.2 | 13.0 | 0.00 | 0.00 | 0.00 | 57 | 1003.9 |
| 20260504193015 | 52 | 261 | 6.1 | 14.8 | 0.00 | 0.00 | 0.00 | 56 | 1003.8 |
| 20260504191512 | 52 | 197 | 6.1 | 9.6 | 0.00 | 0.00 | 0.00 | 54 | 1003.4 |
| 20260504190013 | 53 | 225 | 5.2 | 11.3 | 0.00 | 0.00 | 0.00 | 52 | 1003.3 |
| 20260504184511 | 53 | 189 | 5.2 | 13.0 | 0.00 | 0.00 | 0.00 | 49 | 1003.3 |
| 20260504183011 | 54 | 234 | 5.2 | 13.9 | 0.00 | 0.00 | 0.00 | 47 | 1003.3 |
| 20260504181517 | 55 | 215 | 4.3 | 17.4 | 0.00 | 0.00 | 0.00 | 45 | 1003.2 |
| 20260504180011 | 57 | 219 | 3.5 | 11.3 | 0.00 | 0.00 | 0.00 | 43 | 1003.2 |
| 20260504174513 | 58 | 254 | 11.3 | 19.1 | 0.00 | 0.00 | 0.00 | 41 | 1003.0 |
| 20260504173009 | 58 | 255 | 4.3 | 14.8 | 0.00 | 0.00 | 0.00 | 42 | 1003.2 |
| 20260504171509 | 58 | 284 | 6.1 | 20.9 | 0.00 | 0.00 | 0.00 | 39 | 1003.0 |
| 20260504170108 | 59 | 279 | 8.7 | 20.9 | 0.00 | 0.00 | 0.00 | 38 | 1002.9 |
| 20260504081507 | 52 | 302 | 2.6 | 10.4 | 0.00 | 0.00 | 0.00 | 48 | 1004.4 |
| 20260504044545 | 46 | 236 | 0.9 | 3.5 | 0.00 | 0.00 | 0.00 | 94 | 1003.8 |
| 20260504043055 | 46 | 219 | 0.9 | 4.3 | 0.00 | 0.00 | 0.00 | 94 | 1003.7 |
| 20260504041544 | 46 | 194 | 0.9 | 3.5 | 0.00 | 0.00 | 0.00 | 94 | 1003.9 |
| 20260504040046 | 46 | 167 | 1.7 | 5.2 | 0.00 | 0.00 | 0.00 | 93 | 1004.0 |
| 20260504034549 | 46 | 191 | 1.7 | 5.2 | 0.00 | 0.00 | 0.00 | 93 | 1004.0 |
| 20260504033041 | 47 | 218 | 0.9 | 4.3 | 0.00 | 0.00 | 0.00 | 92 | 1004.2 |
| 20260504031538 | 47 | 229 | 2.6 | 3.5 | 0.00 | 0.00 | 0.00 | 91 | 1004.2 |
| 20260504030042 | 47 | 215 | 1.7 | 6.1 | 0.00 | 0.00 | 0.00 | 92 | 1004.2 |
| 20260504024535 | 47 | 210 | 2.6 | 4.3 | 0.00 | 0.00 | 0.00 | 92 | 1004.2 |
| 20260504023034 | 47 | 180 | 0.9 | 3.5 | 0.00 | 0.00 | 0.00 | 92 | 1004.4 |
| 20260504021535 | 47 | 204 | 0.9 | 2.6 | 0.00 | 0.00 | 0.00 | 92 | 1004.6 |
| 20260504020037 | 47 | 181 | 1.7 | 6.1 | 0.00 | 0.00 | 0.00 | 93 | 1004.7 |
| 20260504014536 | 47 | 187 | 0.0 | 2.6 | 0.00 | 0.00 | 0.00 | 92 | 1004.8 |
| 20260504013029 | 47 | 167 | 0.9 | 4.3 | 0.00 | 0.00 | 0.00 | 92 | 1004.8 |
| 20260504011526 | 47 | 188 | 0.9 | 3.5 | 0.00 | 0.00 | 0.00 | 92 | 1004.9 |
| 20260504010124 | 47 | 159 | 1.7 | 3.5 | 0.00 | 0.00 | 0.00 | 92 | 1004.9 |
| 20260504004521 | 47 | 168 | 1.7 | 4.3 | 0.00 | 0.00 | 0.00 | 91 | 1005.2 |
| 20260504003019 | 47 | 186 | 1.7 | 4.3 | 0.00 | 0.00 | 0.00 | 91 | 1005.4 |
| 20260504001517 | 47 | 165 | 2.6 | 6.1 | 0.00 | 0.00 | 0.00 | 91 | 1005.6 |
| 20260504000015 | 47 | 180 | 1.7 | 5.2 | 0.00 | 0.00 | 0.00 | 92 | 1005.7 |
| 20260503234517 | 47 | 169 | 0.9 | 4.3 | 0.00 | 0.00 | 0.00 | 92 | 1005.8 |
| 20260503233009 | 48 | 166 | 1.7 | 5.2 | 0.00 | 0.00 | 0.00 | 92 | 1006.1 |
| 20260503231506 | 48 | 180 | 1.7 | 5.2 | 0.00 | 0.00 | 0.00 | 93 | 1006.4 |
| 20260503230004 | 48 | 174 | 0.9 | 4.3 | 0.00 | 0.00 | 0.00 | 92 | 1006.5 |
| 20260503224502 | 48 | 161 | 1.7 | 4.3 | 0.00 | 0.00 | 0.00 | 92 | 1006.4 |
| 20260503223102 | 48 | 158 | 1.7 | 4.3 | 0.00 | 0.00 | 0.00 | 92 | 1006.6 |
| 20260503221602 | 48 | 167 | 3.5 | 7.0 | 0.00 | 0.00 | 0.00 | 92 | 1006.7 |
| 20260503220056 | 48 | 163 | 3.5 | 6.1 | 0.00 | 0.00 | 0.00 | 91 | 1006.8 |
| 20260503214554 | 48 | 192 | 0.9 | 3.5 | 0.00 | 0.00 | 0.00 | 91 | 1006.9 |
| 20260503213101 | 48 | 146 | 1.7 | 3.5 | 0.00 | 0.00 | 0.00 | 91 | 1007.0 |
| 20260503211610 | 49 | 149 | 1.7 | 6.1 | 0.00 | 0.00 | 0.00 | 90 | 1007.1 |
| 20260503210052 | 49 | 140 | 1.7 | 6.1 | 0.00 | 0.00 | 0.00 | 90 | 1007.2 |
| 20260503204550 | 49 | 125 | 1.7 | 6.1 | 0.00 | 0.00 | 0.00 | 89 | 1007.3 |
| 20260503203052 | 49 | 129 | 1.7 | 6.1 | 0.00 | 0.00 | 0.00 | 89 | 1007.5 |